Location: Nelson
(41.2830°S, 173.2830°E)
Time: 10:32:47
(UTC+12:00)

ARGOS - Pass Details

Date: 24 January 2019
Orbit: 819 x 835 km, 98.5° (Epoch: 19 April)

Event Time Altitude Azimuth Distance (km) Brightness Sun altitude
Rises 23:11:15 0° 171° (S) 3,391 7.0 -20.5°
Reaches altitude 10° 23:13:39 10° 174° (S) 2,450 6.2 -20.8°
Maximum altitude 23:18:59 60° 252° (WSW) 945 3.6 -21.4°
Enters shadow 23:23:20 15° 329° (NNW) 2,076 5.0 -21.8°
